Back to catalog

STARLINK-35608

AliveCommunicationsVLEO
NORAD 66508·PAYLOAD·🇺🇸 United States

Launched Nov 15, 2025 from Cape Canaveral Space Force Station

Loading…

Next Passes (next 24 hours)

TLE

FreshSource: CelesTrak SupGP

Epoch: Sep 14, 2026, 23:12 UTC

1 66508C 25263Z   26257.96715278 -.00012113  00000+0 -43861-3 0  2571
2 66508  43.0042   1.8461 0001864 275.4447 147.1718 15.27591375    17

Track STARLINK-35608 in real time with AllMySat

Download on the App Store